New York Downtown Manhattan/w, NY

12:55 PM EDT on September 17, 2019 (GMT -0400)
New York Downtown Manhattan/w

Weather History for KJRB - May, 2019

Change the Weather History Date:

Wednesday, May 8, 2019

  Actual Average (WUND) Record (WUND)
Temperature  
Mean Temperature 64 °F -  
Max Temperature 71 °F - - (-1)
Min Temperature 57 °F - - (-1)
Degree Days  
Heating Degree Days 1    
Growing Degree Days 14 (Base 50)    
Moisture  
Dew Point 50 °F    
Average Humidity 67    
Maximum Humidity 90    
Minimum Humidity 41    
Precipitation  
Precipitation 0.01 in - - ()
Sea Level Pressure  
Sea Level Pressure 30.21 in    
Wind  
Wind Speed 5 mph (East)    
Max Wind Speed 12 mph    
Max Gust Speed 36 mph    
Visibility 10 miles    
Events      
Averages and records for this station are not official NWS values.
T = Trace of Precipitation, MM = Missing Value Source: NWS Daily Summary

Daily Weather History Graph

Daily Weather History Graph

Search for Another Location

Airport or City:

Astronomy

May. 08, 2019 Rise Set
Actual Time 5:46 AM EDT 7:59 PM EDT
Civil Twilight 5:16 AM EDT 8:29 PM EDT
Nautical Twilight 4:38 AM EDT 9:07 PM EDT
Astronomical Twilight 3:58 AM EDT 9:48 PM EDT
Moon 8:40 AM EDT (5/8) 11:57 PM EDT (5/8)
Length of Visible Light 15h 13m
Length of Day
14h 12m
Waxing Crescent, 15% of the Moon is Illuminated
May 8
Waxing Crescent
May 11
First Quarter
May 18
Full
May 26
Last Quarter
Jun 3
New

Hourly Weather History & Observations

Time (EDT) Temp. Dew Point Humidity Pressure Visibility Wind Dir Wind Speed Gust Speed Precip Events Conditions
12:56 AM 60.1 °F 57.0 °F 90% 30.15 in 10.0 mi Calm Calm - N/A   Partly Cloudy
1:56 AM 60.1 °F 57.0 °F 90% 30.16 in 10.0 mi Calm Calm - N/A   Mostly Cloudy
2:45 AM 60.8 °F 57.2 °F 88% 30.15 in 10.0 mi Variable 3.5 mph - N/A   Overcast
2:56 AM 60.1 °F 57.0 °F 90% 30.15 in 10.0 mi NE 9.2 mph - N/A   Overcast
3:09 AM 60.8 °F 57.2 °F 88% 30.15 in 10.0 mi ENE 8.1 mph - N/A   Overcast
3:33 AM 59.0 °F 55.4 °F 88% 30.16 in 10.0 mi NNE 4.6 mph 16.1 mph N/A   Overcast
3:54 AM 60.8 °F 55.4 °F 82% 30.17 in 10.0 mi Variable 5.8 mph - N/A   Overcast
4:56 AM 59.0 °F 51.1 °F 75% 30.18 in 10.0 mi NE 8.1 mph - N/A   Overcast
5:56 AM 57.9 °F 48.9 °F 72% 30.19 in 10.0 mi NE 8.1 mph - N/A   Mostly Cloudy
6:56 AM 57.9 °F 48.0 °F 70% 30.20 in 10.0 mi NE 6.9 mph - N/A   Scattered Clouds
7:56 AM 57.9 °F 48.0 °F 70% 30.21 in 10.0 mi NE 8.1 mph 17.3 mph N/A   Scattered Clouds
8:56 AM 60.1 °F 48.9 °F 67% 30.23 in 10.0 mi NE 10.4 mph - N/A   Mostly Cloudy
9:56 AM 63.0 °F 48.9 °F 60% 30.25 in 9.0 mi NNE 11.5 mph - N/A   Mostly Cloudy
10:56 AM 64.9 °F 48.0 °F 54% 30.25 in 10.0 mi ENE 8.1 mph - N/A   Overcast
11:56 AM 66.9 °F 45.0 °F 45% 30.25 in 10.0 mi Variable 6.9 mph - N/A   Partly Cloudy
12:56 PM 69.1 °F 46.0 °F 44% 30.23 in 9.0 mi ENE 6.9 mph - N/A   Clear
1:56 PM 70.0 °F 46.9 °F 44% 30.21 in 10.0 mi Variable 4.6 mph - N/A   Mostly Cloudy
2:56 PM 71.1 °F 46.0 °F 41% 30.21 in 10.0 mi Variable 3.5 mph - N/A   Clear
3:38 PM 68.0 °F 48.2 °F 49% 30.21 in 10.0 mi South 8.1 mph - N/A   Partly Cloudy
3:56 PM 66.9 °F 48.9 °F 52% 30.22 in 10.0 mi SSE 9.2 mph - N/A   Clear
4:56 PM 64.9 °F 48.9 °F 56% 30.21 in 10.0 mi South 10.4 mph 35.7 mph 0.01 in   Overcast
5:56 PM 64.9 °F 46.9 °F 52% 30.21 in 10.0 mi SSE 5.8 mph - N/A   Clear
6:56 PM 62.1 °F 46.9 °F 58% 30.21 in 10.0 mi SSE 5.8 mph - N/A   Clear
7:56 PM 61.0 °F 48.9 °F 64% 30.22 in 10.0 mi SSW 4.6 mph 35.7 mph N/A   Clear
8:56 PM 57.9 °F 48.9 °F 72% 30.25 in 10.0 mi South 4.6 mph - N/A   Clear
9:56 PM 57.9 °F 50.0 °F 75% 30.27 in 10.0 mi Calm Calm - N/A   Clear
10:56 PM 57.9 °F 51.1 °F 78% 30.27 in 10.0 mi Calm Calm - N/A   Clear
11:56 PM - - N/A% 30.28 in 10.0 mi Calm Calm - N/A   Clear